Total_Precipitation_Accumulation
3.78 4.35 5.23 4.52 3.87 3.72 3.85 3.70 3.49 3.39 3.26 3.12 2.96 2.77 2.47 2.14 1.94 1.85 1.75 1.68 1.65 1.68 1.63 1.74 1.85 1.81 1.91 2.13 2.27 2.23 2.09 2.12 2.35 2.65 2.79 2.80 2.90 3.08 3.37 3.55 3.39 2.58 2.46
3.15 3.86 4.61 4.16 3.59 3.44 3.39 3.44 3.37 3.30 3.28 3.10 3.05 2.79 2.53 2.29 1.99 1.80 1.70 1.59 1.57 1.55 1.42 1.53 1.64 1.63 1.68 1.89 2.04 1.97 2.02 2.30 2.85 3.36 3.53 3.25 3.23 3.43 3.52 3.41 3.35 2.74 2.41
2.62 3.03 3.52 3.65 3.36 3.23 3.02 3.08 3.22 3.12 3.18 2.94 2.77 2.59 2.50 2.29 1.96 1.73 1.63 1.60 1.57 1.49 1.34 1.45 1.53 1.46 1.59 1.80 1.86 1.81 2.01 2.50 3.28 4.20 4.38 3.55 3.09 3.48 3.53 3.33 2.97 2.53 2.24
2.24 2.72 2.88 3.19 3.07 2.85 2.66 2.79 2.83 2.90 2.85 2.74 2.52 2.35 2.27 2.19 1.94 1.63 1.55 1.55 1.49 1.40 1.37 1.46 1.53 1.56 1.59 1.66 1.68 1.91 2.23 2.53 3.29 3.99 3.96 2.96 2.50 2.87 3.07 2.70 2.43 2.32 2.06
2.10 2.45 2.78 2.82 2.62 2.44 2.34 2.46 2.55 2.59 2.54 2.56 2.40 2.27 2.16 2.02 1.82 1.58 1.48 1.50 1.44 1.42 1.37 1.43 1.62 1.74 1.71 1.66 1.69 2.03 2.40 2.73 3.20 3.46 2.99 3.09 2.92 2.68 2.57 2.38 2.24 2.08 1.86
1.73 1.89 2.30 2.45 2.32 2.33 2.25 2.18 2.29 2.31 2.37 2.44 2.33 2.19 2.25 2.14 1.92 1.64 1.46 1.41 1.42 1.44 1.43 1.51 1.68 1.80 1.71 1.60 1.71 2.11 2.42 2.87 2.98 2.36 2.01 2.30 2.31 2.36 2.40 2.34 2.15 1.92 1.83
1.56 1.67 1.98 2.28 2.26 2.20 2.02 1.91 2.11 2.24 2.22 2.21 2.14 1.99 2.10 2.05 1.91 1.66 1.45 1.37 1.32 1.35 1.43 1.52 1.63 1.72 1.62 1.61 1.73 2.10 2.53 2.89 2.61 1.93 1.70 1.99 1.93 2.10 2.36 2.38 2.30 1.98 1.74
1.43 1.55 1.90 2.20 2.12 1.99 1.90 1.94 2.14 2.22 2.10 2.02 2.01 1.90 1.89 1.95 1.93 1.80 1.58 1.50 1.39 1.39 1.50 1.56 1.62 1.59 1.57 1.66 1.90 2.11 2.47 2.46 1.96 1.74 1.63 1.78 1.51 1.85 2.17 2.13 2.05 1.91 1.70
1.72 1.75 1.81 1.85 1.89 1.96 2.14 2.29 2.45 2.37 2.08 1.96 1.96 1.84 1.72 1.73 1.80 1.74 1.73 1.66 1.58 1.57 1.62 1.72 1.68 1.64 1.63 1.75 1.92 2.11 2.49 2.68 2.25 2.01 1.70 1.76 1.53 1.79 2.19 2.04 1.82 1.75 1.77
2.44 2.26 2.01 1.90 2.05 2.03 2.15 2.40 2.54 2.29 2.00 1.91 1.96 1.91 1.87 1.98 2.08 2.06 1.91 1.89 1.97 2.03 1.99 2.03 1.94 1.86 1.84 1.98 2.13 2.29 2.57 2.44 2.20 2.27 2.15 1.74 1.53 1.91 2.26 2.37 2.10 1.86 1.78
2.89 2.72 2.49 2.23 2.06 2.18 2.25 2.36 2.72 2.52 2.25 2.29 2.54 2.53 2.66 3.10 2.89 2.86 2.35 2.41 2.59 2.73 2.70 2.67 2.62 2.45 2.22 2.11 2.36 2.59 2.45 2.24 2.61 2.72 2.45 1.76 1.81 2.40 2.64 2.76 2.57 2.34 2.17
2.91 2.65 2.52 2.42 2.07 2.06 2.20 2.71 3.35 3.02 2.84 2.90 3.23 3.15 3.53 3.57 3.42 2.67 2.70 3.16 3.41 3.71 3.74 3.66 3.58 3.12 2.62 2.33 2.62 2.65 2.39 2.59 3.05 2.66 2.18 1.77 2.04 2.60 2.99 3.07 2.86 2.58 2.50
2.70 2.61 2.36 2.66 2.39 2.45 2.82 2.94 3.25 3.41 3.36 3.34 3.39 3.37 3.63 3.26 2.97 2.88 3.33 3.74 4.04 4.17 4.25 4.14 3.99 3.32 3.30 3.47 3.42 3.05 2.98 2.97 3.28 2.84 2.19 2.06 2.32 2.78 3.14 3.25 3.08 2.81 2.66
2.57 2.58 2.66 2.79 2.89 3.07 3.10 3.01 2.89 2.75 2.80 2.97 3.16 3.13 3.32 3.43 3.44 3.41 3.70 3.87 4.07 4.45 4.86 4.64 4.59 4.16 4.03 3.79 3.60 3.61 3.41 3.13 3.40 3.47 2.88 2.36 2.51 2.97 3.29 3.33 3.16 3.01 3.04
3.25 3.08 3.16 3.40 3.43 3.39 3.43 3.17 2.67 2.51 2.41 2.47 2.67 2.83 2.79 3.15 3.45 3.48 3.42 3.58 3.48 3.67 4.11 4.70 4.55 4.69 4.54 4.10 3.61 3.50 3.64 3.55 3.45 3.32 2.89 2.73 2.93 3.02 3.18 3.26 3.30 3.30 3.33
4.24 4.03 3.87 3.99 3.67 3.51 3.44 3.18 2.92 2.53 2.55 2.46 2.42 2.42 2.63 2.90 3.22 3.20 3.20 3.51 3.49 3.39 3.55 4.03 4.20 4.63 4.56 4.16 3.54 3.26 3.34 3.45 3.29 3.14 2.94 2.87 2.91 2.75 2.88 3.34 3.70 3.89 3.82
5.36 4.99 4.44 4.19 3.91 3.76 3.60 3.21 2.81 2.61 2.46 2.63 2.60 2.46 2.54 2.68 2.94 2.92 3.04 3.08 3.10 3.02 3.19 3.40 3.62 3.92 3.82 3.64 3.54 3.31 3.20 3.13 2.89 2.95 3.00 2.86 2.54 2.70 2.86 3.12 3.47 3.76 4.01
6.11 5.57 4.84 4.10 4.22 4.17 3.98 3.37 2.89 2.72 2.65 2.61 2.48 2.33 2.26 2.44 2.44 2.60 2.62 2.58 2.62 2.50 2.67 3.11 3.15 3.37 3.58 3.56 3.73 3.45 3.16 3.21 2.96 2.89 2.90 2.95 2.94 2.59 2.93 3.08 3.24 3.41 3.80
6.21 6.06 5.44 5.30 5.11 4.50 3.85 3.31 2.95 2.74 2.70 2.46 2.40 2.36 2.35 2.34 2.40 2.56 2.70 2.71 2.32 2.31 2.47 2.30 2.80 3.07 3.26 3.27 2.83 2.96 2.67 2.74 2.71 2.42 2.54 2.50 2.77 2.80 2.99 2.93 3.12 3.12 3.47
5.23 5.16 5.09 5.21 4.81 4.23 3.63 3.23 3.04 2.83 2.57 2.39 2.37 2.48 2.48 2.41 2.36 2.68 2.52 2.34 2.12 2.49 2.80 2.86 3.22 3.17 2.99 3.00 2.48 2.57 2.37 2.22 2.30 2.22 2.12 2.23 2.36 2.31 2.68 2.86 2.98 2.65 2.98
3.76 3.87 4.21 4.38 4.15 3.71 3.33 2.89 2.80 2.79 2.55 2.34 2.27 2.14 2.30 2.21 2.42 2.82 2.55 2.87 2.54 2.63 2.80 2.81 3.05 3.01 2.70 2.65 3.06 3.06 2.46 1.99 2.05 1.94 1.90 2.13 2.11 2.23 2.64 2.95 3.13 3.09 2.88
2.98 3.27 3.61 3.86 3.72 3.15 2.94 2.79 2.73 2.70 2.52 2.55 2.47 2.46 2.21 2.18 2.40 2.46 2.85 2.61 2.68 2.88 2.87 2.93 3.10 3.10 2.80 2.78 3.23 3.57 3.14 3.02 2.61 1.82 1.88 2.05 2.10 2.32 2.39 2.41 2.74 3.19 3.08
2.78 3.00 2.90 3.18 3.36 3.11 3.04 2.98 2.90 2.88 2.68 2.79 2.78 2.70 2.32 2.14 2.12 2.30 2.48 2.50 2.75 2.56 2.92 3.15 3.11 3.23 3.27 3.07 3.11 3.58 3.59 3.44 2.88 2.27 1.84 1.83 2.08 2.46 2.46 2.51 2.37 2.72 3.05
2.05 2.35 2.72 3.05 3.13 3.07 2.97 2.79 2.70 2.53 2.49 2.51 2.52 2.54 2.38 2.23 2.12 2.19 2.31 2.63 2.83 2.57 3.14 2.71 2.84 3.11 3.30 3.11 3.07 2.94 3.07 3.32 3.36 3.05 2.47 1.96 1.97 2.25 2.44 2.25 2.27 2.67 3.00
1.53 1.93 2.50 2.97 3.20 3.09 2.78 2.66 2.80 2.64 2.55 2.54 2.44 2.64 2.46 2.30 2.13 2.02 2.29 2.58 2.72 2.63 2.80 2.85 3.13 2.99 2.94 2.96 3.03 3.11 3.27 3.23 2.96 3.08 3.03 2.68 2.35 1.85 1.74 1.95 2.24 2.43 2.67
1.38 1.62 2.08 2.51 2.81 2.89 2.70 2.59 2.67 2.77 2.76 2.63 2.50 2.48 2.29 2.24 2.17 2.08 2.28 2.59 2.56 2.63 2.81 2.77 2.92 2.91 2.98 3.06 2.90 2.83 3.10 3.11 2.99 3.08 2.79 2.58 2.49 1.83 1.54 1.60 1.83 2.24 2.45